カタログに戻る

ATLAS 5 CENTAUR DEB

運用中HEO
NORAD 43986·DEBRIS·🇺🇸 United States

打ち上げ Sep 17, 2014 から Cape Canaveral Space Force Station

Loading…

次のパス (今後24時間)

TLE

最新Source: Space-Track

元期: Sep 14, 2026, 00:46 UTC

1 43986U 14055AR  26257.03206776 -.00000097  00000-0  00000-0 0  9995
2 43986  20.1215 141.4232 4748111 170.0870 204.2628  1.84561016 53755

AllMySatでATLAS 5 CENTAUR DEBをリアルタイム追跡

Download on the App Store